Dublin, Ireland

1:46 AM IST on April 24, 2017 (GMT +0100)
Dublin Airport

Weather History for EIDW - May, 2013

Change the Weather History Date:

Saturday, May 18, 2013

  Actual Average Record
Temperature  
Mean Temperature 46 °F -  
Max Temperature 51 °F 61 °F 68 °F (2004)
Min Temperature 42 °F 47 °F 39 °F (2004)
Degree Days  
Heating Degree Days 18    
Moisture  
Dew Point 43 °F    
Average Humidity 83    
Maximum Humidity 100    
Minimum Humidity 65    
Precipitation  
Precipitation 0.02 in 0.07 in - ()
Sea Level Pressure  
Sea Level Pressure 29.81 in    
Wind  
Wind Speed 10 mph ()    
Max Wind Speed 16 mph    
Max Gust Speed -    
Visibility 6.8 miles    
Events Rain    
Averages and records for this station are not official NWS values.
T = Trace of Precipitation, MM = Missing Value Source: Averaged Metar Reports

Daily Weather History Graph

Daily Weather History Graph

Search for Another Location

Airport or City:

Trip Planner

Search our weather history database for the weather conditions in past years. The results will help you decide how hot, cold, wet, or windy it might be!

Date:

Astronomy

May. 18, 2013 Rise Set
Actual Time 5:20 AM IST 9:23 PM IST
Civil Twilight 4:34 AM IST 10:09 PM IST
Nautical Twilight 3:28 AM IST 11:16 PM IST
Astronomical Twilight 1:53 AM IST 12:49 AM IST
Moon 1:12 PM IST (5/18) 2:09 AM IST (5/18)
Length of Visible Light 17h 35m
Length of Day
16h 03m
First Quarter, 53% of the Moon is Illuminated
May 18
First Quarter
May 25
Full
May 31
Last Quarter
Jun 8
New
Jun 16
First Quarter

Hourly Weather History & Observations

Time (IST) Temp. Windchill Dew Point Humidity Pressure Visibility Wind Dir Wind Speed Gust Speed Precip Events Conditions
12:00 AM 44.6 °F 40.2 °F 37.4 °F 76% 29.92 in 6.2 mi NW 8.1 mph - N/A   Mostly Cloudy
12:30 AM 44.6 °F 39.7 °F 37.4 °F 76% 29.92 in 6.2 mi NW 9.2 mph - N/A   Mostly Cloudy
1:00 AM 46 °F - 38 °F 65% 29.92 in 19 mi NW 11.2 mph - -   Scattered Clouds
1:00 AM 46.4 °F 41.1 °F 37.4 °F 71% 29.89 in - NW 11.5 mph - N/A   Clear
1:30 AM 46.4 °F 41.1 °F 39.2 °F 76% 29.89 in - NW 11.5 mph - N/A   Clear
2:00 AM 46.4 °F 41.5 °F 39.2 °F 76% 29.89 in - NW 10.4 mph - N/A   Clear
2:30 AM 46.4 °F 41.5 °F 37.4 °F 71% 29.89 in - NW 10.4 mph - N/A   Clear
3:00 AM 46.4 °F 41.1 °F 37.4 °F 71% 29.86 in - NW 11.5 mph - N/A   Clear
3:30 AM 44.6 °F 39.7 °F 37.4 °F 76% 29.86 in - NW 9.2 mph - N/A   Clear
4:00 AM 44.6 °F 38.4 °F 39.2 °F 81% 29.86 in - WNW 12.7 mph - N/A   Clear
4:30 AM 44.6 °F 38.4 °F 37.4 °F 76% 29.86 in - WNW 12.7 mph - N/A   Clear
5:00 AM 44.6 °F 38.8 °F 39.2 °F 81% 29.86 in - WNW 11.5 mph - N/A   Clear
5:30 AM 44.6 °F 39.2 °F 39.2 °F 81% 29.86 in - West 10.4 mph - N/A   Clear
6:00 AM 44.6 °F 40.2 °F 41.0 °F 87% 29.86 in - West 8.1 mph - N/A   Clear
6:30 AM 44.6 °F 40.7 °F 41.0 °F 87% 29.86 in 6.2 mi West 6.9 mph - N/A   Mostly Cloudy
7:00 AM 44 °F - 41 °F 87% 29.88 in 16 mi West 8.9 mph - -   Partly Cloudy
7:00 AM 44.6 °F 39.2 °F 41.0 °F 87% 29.86 in 6.2 mi West 10.4 mph - N/A   Mostly Cloudy
7:30 AM 44.6 °F 39.7 °F 42.8 °F 93% 29.86 in 6.2 mi West 9.2 mph - N/A   Mostly Cloudy
8:00 AM 46.4 °F 41.9 °F 42.8 °F 87% 29.86 in 6.2 mi West 9.2 mph - N/A   Mostly Cloudy
8:30 AM 48.2 °F - 44.6 °F 87% 29.86 in 6.2 mi WNW 10.4 mph - N/A   Mostly Cloudy
9:00 AM 50.0 °F - 46.4 °F 87% 29.86 in 6.2 mi WNW 10.4 mph - N/A   Mostly Cloudy
9:30 AM 51.8 °F - 42.8 °F 71% 29.86 in 6.2 mi NW 10.4 mph - N/A   Mostly Cloudy
10:00 AM 50.0 °F - 44.6 °F 82% 29.83 in 6.2 mi NW 10.4 mph - N/A   Mostly Cloudy
10:30 AM 51.8 °F - 44.6 °F 76% 29.83 in 6.2 mi WNW 12.7 mph - N/A   Mostly Cloudy
11:00 AM 51.8 °F - 44.6 °F 76% 29.83 in 6.2 mi WNW 13.8 mph - N/A   Mostly Cloudy
11:30 AM 51.8 °F - 42.8 °F 71% 29.80 in 6.2 mi WNW 13.8 mph - N/A   Mostly Cloudy
12:00 PM 50.0 °F - 42.8 °F 76% 29.80 in 6.2 mi WNW 13.8 mph - N/A   Mostly Cloudy
12:30 PM 50.0 °F - 44.6 °F 82% 29.80 in 6.2 mi WNW 16.1 mph - N/A   Mostly Cloudy
1:00 PM 50 °F - 44 °F 71% 29.81 in 19 mi WNW 15.7 mph - -   Overcast
1:00 PM 50.0 °F - 44.6 °F 82% 29.80 in 6.2 mi WNW 15.0 mph - N/A   Mostly Cloudy
1:30 PM 50.0 °F - 44.6 °F 82% 29.77 in 6.2 mi West 15.0 mph - N/A   Mostly Cloudy
2:00 PM 50.0 °F - 44.6 °F 82% 29.77 in 6.2 mi WNW 16.1 mph - N/A   Mostly Cloudy
2:30 PM 50.0 °F - 44.6 °F 82% 29.77 in 6.2 mi WNW 15.0 mph - N/A   Mostly Cloudy
3:00 PM 48.2 °F - 44.6 °F 87% 29.77 in 6.2 mi West 13.8 mph - N/A   Mostly Cloudy
3:30 PM 48.2 °F - 44.6 °F 87% 29.74 in 6.2 mi WNW 15.0 mph - N/A   Mostly Cloudy
4:00 PM 48.2 °F - 44.6 °F 87% 29.74 in 6.2 mi West 12.7 mph - N/A   Mostly Cloudy
4:30 PM 48.2 °F - 46.4 °F 93% 29.74 in 5.6 mi West 11.5 mph - N/A   Light Drizzle
5:00 PM 48.2 °F - 46.4 °F 93% 29.74 in 5.6 mi West 12.7 mph - N/A   Light Drizzle
5:30 PM 50.0 °F - 46.4 °F 87% 29.71 in 6.2 mi West 12.7 mph - N/A   Light Drizzle
6:00 PM 50.0 °F - 46.4 °F 87% 29.71 in 6.2 mi West 13.8 mph - N/A   Light Drizzle
6:30 PM 50.0 °F - 46.4 °F 87% 29.71 in 6.2 mi WSW 11.5 mph - N/A   Light Drizzle
7:00 PM 50 °F - 47 °F 87% 29.74 in 11 mi WSW 11.2 mph - - Rain Light Drizzle
7:00 PM 50.0 °F - 46.4 °F 87% 29.71 in 6.2 mi WSW 12.7 mph - N/A   Mostly Cloudy
7:30 PM 50.0 °F - 46.4 °F 87% 29.74 in 6.2 mi WSW 12.7 mph - N/A   Light Drizzle
8:00 PM 50.0 °F - 46.4 °F 87% 29.71 in 6.2 mi WSW 10.4 mph - N/A   Overcast
8:30 PM 50.0 °F - 46.4 °F 87% 29.71 in 6.2 mi West 11.5 mph - N/A   Mostly Cloudy
9:00 PM 50.0 °F - 46.4 °F 87% 29.74 in 6.2 mi WSW 8.1 mph - N/A   Mostly Cloudy
9:30 PM 48.2 °F - 46.4 °F 93% 29.74 in 6.2 mi WSW 8.1 mph - N/A   Light Drizzle
10:00 PM 50.0 °F - 46.4 °F 87% 29.74 in 4.3 mi SW 4.6 mph - N/A   Light Drizzle
10:30 PM 48.2 °F - 48.2 °F 100% 29.77 in 3.1 mi West 5.8 mph - N/A   Light Drizzle
11:00 PM 48.2 °F - 48.2 °F 100% 29.77 in 2.5 mi Variable 3.5 mph - N/A   Light Drizzle
11:30 PM 48.2 °F - 48.2 °F 100% 29.77 in 2.5 mi SW 5.8 mph - N/A   Light Drizzle